Location: Unspecified
(49.8670°N, 0.0000°E)
Time: 10:56:46
(UTC+00:00)

Vanguard 1 - All Passes

Search period start: 20 June 2019 00:00
Search period end: 30 June 2019 00:00
Orbit: 654 x 3829 km, 34.2° (Epoch: 19 June)

Date Brightness Start Highest point End Pass type
(mag) Time Alt. Az. Time Alt. Az. Time Alt. Az.
20 Jun - 00:33:55 10° SSE 00:40:41 13° SE 00:46:24 10° ESE visible
20 Jun - 02:49:55 10° SSW 03:02:25 27° SSE 03:10:35 10° ESE visible
20 Jun - 05:12:47 10° WSW 05:23:18 31° S 05:29:48 10° SE daylight
20 Jun - 07:37:15 10° WSW 07:42:39 18° SSW 07:46:40 10° SSE daylight
21 Jun - 00:50:50 10° S 01:01:33 18° SSE 01:09:46 10° ESE visible
21 Jun - 03:10:01 10° SW 03:23:21 30° S 03:31:42 10° ESE visible
21 Jun - 05:33:45 10° WSW 05:44:03 30° S 05:50:25 10° SE daylight
21 Jun - 07:59:00 10° WSW 08:03:04 14° SW 08:06:19 10° S daylight
22 Jun - 01:09:18 10° SSW 01:22:27 23° SSE 01:31:54 10° ESE visible
22 Jun - 03:30:27 10° SW 03:44:14 33° S 03:52:39 10° ESE daylight
22 Jun - 05:54:53 10° WSW 06:04:43 29° SSW 06:10:54 10° SE daylight
22 Jun - 08:21:56 10° SW 08:23:23 11° SW 08:24:44 10° SSW daylight
22 Jun - 23:15:41 10° SSE 23:21:17 12° SE 23:26:20 10° ESE visible
23 Jun - 01:28:33 10° SSW 01:43:23 28° SSE 01:53:28 10° ESE visible
23 Jun - 03:51:09 10° WSW 04:05:07 36° S 04:13:28 10° ESE daylight
23 Jun - 06:16:08 10° WSW 06:25:19 26° SSW 06:31:15 10° SSE daylight
23 Jun - 23:31:00 10° S 23:42:03 17° SE 23:51:06 10° ESE visible
24 Jun - 01:48:21 10° SW 02:04:18 32° SSE 02:14:43 10° ESE visible
24 Jun - 04:12:03 10° WSW 04:25:57 37° S 04:34:11 10° ESE daylight
24 Jun - 06:37:34 10° WSW 06:45:49 23° SSW 06:51:23 10° SSE daylight
24 Jun - 23:48:45 10° S 00:02:51 22° SSE 00:13:44 10° ESE visible
25 Jun - 02:08:34 10° SW 02:25:15 36° SSE 02:35:47 10° ESE visible
25 Jun - 04:33:07 10° WSW 04:46:44 36° S 04:54:49 10° SE daylight
25 Jun - 06:59:13 10° WSW 07:06:13 19° SW 07:11:13 10° S daylight
26 Jun - 00:07:32 10° SSW 00:23:41 27° SSE 00:35:36 10° ESE visible
26 Jun - 02:29:06 10° SW 02:46:12 39° S 02:56:43 10° ESE visible
26 Jun - 04:54:20 10° WSW 05:07:27 35° SSW 05:15:19 10° SE daylight
26 Jun - 07:21:20 10° WSW 07:26:30 15° SW 07:30:32 10° S daylight
26 Jun - 22:12:37 10° SSE 22:22:12 14° SE 22:30:45 10° ESE visible
27 Jun - 00:26:58 10° SSW 00:44:35 32° SSE 00:57:05 10° ESE visible
27 Jun - 02:49:52 10° WSW 03:07:06 41° S 03:17:32 10° ESE visible
27 Jun - 05:15:39 10° WSW 05:28:04 32° SSW 05:35:40 10° SE daylight
27 Jun - 07:45:01 10° WSW 07:46:40 11° SW 07:48:12 10° SW daylight
27 Jun - 22:29:13 10° S 22:42:50 20° SE 22:54:24 10° ESE visible
28 Jun - 00:46:52 10° SW 01:05:30 36° SSE 01:18:19 10° ESE visible
28 Jun - 03:10:50 10° WSW 03:27:59 42° S 03:38:16 10° ESE visible
28 Jun - 05:37:06 10° W 05:48:35 28° SSW 05:55:51 10° SSE daylight
28 Jun - 22:47:21 10° S 23:03:31 25° SE 23:16:47 10° E visible
29 Jun - 01:07:09 10° SW 01:26:27 40° SSE 01:39:22 10° ESE visible
29 Jun - 03:31:57 10° WSW 03:48:49 41° S 03:58:54 10° SE daylight
29 Jun - 05:58:45 10° W 06:08:59 24° SW 06:15:47 10° SSE daylight
29 Jun - 20:57:48 10° SE 21:02:16 11° SE 21:06:37 10° ESE visible
29 Jun - 23:06:19 10° SSW 23:24:17 30° SSE 23:38:35 10° E visible
